CW9585 Weather Reports


Display with metric or nautical units.
time (UTC)temp
F
wind
direction
speed
MPH
gust
MPH
rain 1hr
in
rain 24hr
in
rain mn
in
humidity
%
barometer
mb
20260905063204 62 182 0.0 0.0 0.00 0.02 0.02 81 1015.0
20260905062205 62 182 0.0 1.0 0.00 0.02 0.02 80 1014.9
20260905061704 62 182 0.0 2.0 0.00 0.02 0.02 80 1014.9
20260905061205 62 182 0.0 4.0 0.00 0.02 0.02 80 1014.9
20260905060704 62 182 1.0 4.0 0.00 0.02 0.02 80 1015.0
20260905060204 62 182 1.0 4.0 0.00 0.02 0.02 79 1015.1
20260905055704 63 182 1.0 4.0 0.00 0.02 0.02 79 1015.0
20260905055204 63 182 1.0 4.0 0.00 0.02 0.02 78 1015.0
20260905054705 63 182 2.0 3.0 0.00 0.02 0.02 78 1015.0
20260905054204 64 157 1.0 3.0 0.00 0.02 0.02 77 1015.0
20260905053704 64 169 0.0 4.0 0.00 0.02 0.02 77 1014.9
20260905053205 64 145 1.0 4.0 0.00 0.02 0.02 76 1015.0
20260905052704 65 183 2.0 3.0 0.00 0.02 0.02 75 1015.0
20260905052204 65 183 1.0 3.0 0.00 0.02 0.02 75 1015.0
20260905051704 65 132 1.0 4.0 0.00 0.02 0.02 74 1014.8
20260905051204 66 179 2.0 4.0 0.00 0.02 0.02 72 1014.8
20260905050704 66 134 1.0 4.0 0.00 0.02 0.02 70 1014.9
20260905050204 66 139 0.0 0.0 0.00 0.02 0.02 62 1014.9
20260905045705 67 287 0.0 0.0 0.00 0.02 0.02 57 1014.8
20260905045204 67 287 0.0 0.0 0.00 0.02 0.02 56 1014.8
20260905044705 67 287 0.0 0.0 0.00 0.02 0.02 56 1014.7
20260905044204 67 287 0.0 0.0 0.00 0.02 0.02 56 1014.7
20260905043204 68 287 0.0 3.0 0.00 0.02 0.02 55 1014.6
20260905042704 68 287 1.0 5.0 0.00 0.02 0.02 54 1014.6
20260905042204 68 287 2.0 5.0 0.00 0.02 0.02 54 1014.6
20260905041704 68 273 1.0 4.0 0.00 0.02 0.02 54 1014.6
20260905041204 69 273 1.0 4.0 0.00 0.02 0.02 53 1014.5
20260905040705 69 303 1.0 3.0 0.00 0.02 0.02 52 1014.4
20260905035705 70 303 0.0 5.0 0.00 0.02 0.02 52 1014.3
20260905034705 70 5 1.0 5.0 0.00 0.02 0.02 51 1014.2
20260905033704 71 20 1.0 5.0 0.00 0.02 0.02 50 1014.0
20260905033205 71 321 1.0 5.0 0.00 0.02 0.02 49 1013.9
20260905032704 71 298 1.0 4.0 0.00 0.02 0.02 49 1013.9
20260905032204 72 318 1.0 4.0 0.00 0.02 0.02 49 1013.9
20260905031705 72 293 1.0 5.0 0.00 0.02 0.02 49 1013.8
20260905030704 73 319 1.0 6.0 0.00 0.02 0.02 49 1013.7
20260905030204 73 313 1.0 6.0 0.00 0.02 0.02 49 1013.7
20260905025704 73 307 1.0 4.0 0.00 0.02 0.02 49 1013.6
20260905025204 73 306 1.0 6.0 0.00 0.02 0.02 48 1013.6
20260905024704 74 311 2.0 8.0 0.00 0.02 0.02 48 1013.5
20260905023704 74 300 4.0 8.0 0.00 0.02 0.02 48 1013.4
20260905023205 74 355 3.0 8.0 0.00 0.02 0.02 48 1013.4
20260905022704 74 309 3.0 8.0 0.00 0.02 0.02 48 1013.4
20260905022204 74 336 2.0 5.0 0.00 0.02 0.02 49 1013.4
20260905021704 75 269 1.0 5.0 0.00 0.02 0.02 54 1013.2
20260905021205 75 232 2.0 5.0 0.00 0.02 0.02 57 1013.3
20260905020705 75 271 2.0 6.0 0.00 0.02 0.02 57 1013.3
20260905020204 75 227 1.0 6.0 0.00 0.02 0.02 56 1013.3
20260905015704 76 219 1.0 6.0 0.00 0.02 0.02 56 1013.2
20260905015204 76 254 2.0 6.0 0.00 0.02 0.02 56 1013.3
20260905014705 76 240 3.0 6.0 0.00 0.02 0.02 55 1013.2
20260905014204 76 252 3.0 8.0 0.00 0.02 0.02 55 1013.3
20260905013704 76 213 3.0 11.0 0.00 0.02 0.02 54 1013.1
20260905012705 77 257 4.0 9.0 0.00 0.02 0.02 52 1013.3
20260905012205 78 267 3.0 9.0 0.00 0.02 0.02 51 1013.2
20260905011704 78 257 4.0 10.0 0.00 0.02 0.02 50 1013.2
20260905011205 78 254 5.0 11.0 0.00 0.02 0.02 51 1013.2
20260905010704 78 245 6.0 13.0 0.00 0.02 0.02 50 1013.2
20260905010205 78 244 6.0 13.0 0.00 0.02 0.02 50 1013.1
20260905005704 78 236 7.0 13.0 0.00 0.02 0.02 50 1013.1
20260905004704 78 276 6.0 15.0 0.00 0.02 0.02 50 1013.0
20260905003704 78 226 7.0 15.0 0.00 0.02 0.02 50 1013.0
20260905003204 78 269 7.0 15.0 0.00 0.02 0.02 50 1013.0
20260905002205 78 225 7.0 15.0 0.00 0.02 0.02 49 1013.1
20260905001204 78 222 7.0 13.0 0.00 0.02 0.02 47 1013.1
20260905000704 78 257 6.0 13.0 0.00 0.02 0.02 47 1013.1
20260905000204 78 241 7.0 13.0 0.00 0.02 0.02 46 1013.1
20260904235705 78 248 6.0 12.0 0.00 0.02 0.02 45 1013.1
20260904235204 79 240 5.0 12.0 0.00 0.02 0.02 45 1013.2
20260904234204 78 264 6.0 14.0 0.00 0.02 0.02 46 1013.2
20260904233204 78 250 6.0 11.0 0.00 0.02 0.02 45 1013.4
20260904232705 78 255 6.0 11.0 0.00 0.02 0.02 46 1013.3
20260904232205 78 313 5.0 11.0 0.00 0.02 0.02 46 1013.4
20260904231704 78 264 5.0 14.0 0.00 0.02 0.02 46 1013.4
20260904231204 78 187 6.0 14.0 0.00 0.02 0.02 46 1013.5
20260904230705 77 236 6.0 14.0 0.00 0.02 0.02 48 1013.5
20260904230204 77 254 6.0 13.0 0.00 0.02 0.02 48 1013.7
20260904225704 76 243 6.0 14.0 0.00 0.02 0.02 49 1013.7
20260904225204 76 238 7.0 14.0 0.00 0.02 0.02 50 1013.8
20260904224704 75 213 8.0 14.0 0.00 0.02 0.02 50 1013.8
20260904224204 75 208 8.0 14.0 0.00 0.02 0.02 53 1013.9
20260904223704 75 215 7.0 14.0 0.00 0.02 0.02 53 1014.0
20260904223205 75 245 7.0 14.0 0.00 0.02 0.02 56 1014.2
20260904221704 74 250 7.0 13.0 0.00 0.02 0.02 55 1014.3
20260904220204 73 165 8.0 16.0 0.00 0.02 0.02 57 1014.5
20260904215705 73 212 7.0 16.0 0.00 0.02 0.02 52 1014.4
20260904215204 73 241 7.0 15.0 0.00 0.02 0.02 53 1014.4
20260904214704 73 184 8.0 14.0 0.00 0.02 0.02 54 1014.4
20260904214204 73 279 7.0 14.0 0.00 0.02 0.02 56 1014.4
20260904213205 73 213 6.0 14.0 0.00 0.02 0.02 55 1014.4
20260904212704 72 207 7.0 15.0 0.00 0.02 0.02 59 1014.4
20260904211704 70 192 7.0 15.0 0.00 0.02 0.02 64 1014.4
20260904211205 70 176 7.0 12.0 0.00 0.02 0.02 66 1014.6
20260904210705 71 215 6.0 12.0 0.00 0.02 0.02 65 1014.6
20260904205704 71 187 7.0 13.0 0.00 0.02 0.02 64 1014.6
20260904204204 71 188 6.0 13.0 0.00 0.02 0.02 66 1014.9
20260904203705 71 188 6.0 13.0 0.00 0.02 0.02 66 1014.8
20260904203204 71 246 6.0 11.0 0.00 0.02 0.02 70 1014.7
20260904202705 71 202 6.0 11.0 0.00 0.02 0.02 71 1014.8
20260904201704 71 198 6.0 11.0 0.00 0.02 0.02 72 1014.8
20260904201204 71 196 5.0 9.0 0.00 0.02 0.02 72 1014.8
20260904200704 70 237 5.0 10.0 0.00 0.02 0.02 74 1014.8
20260904200204 70 215 5.0 10.0 0.00 0.02 0.02 75 1014.8
20260904195705 69 197 6.0 10.0 0.00 0.02 0.02 76 1014.8
20260904195204 69 202 6.0 10.0 0.00 0.02 0.02 77 1014.8
20260904194205 69 192 6.0 12.0 0.00 0.02 0.02 78 1014.9
20260904193204 69 202 6.0 10.0 0.00 0.02 0.02 77 1015.0
20260904192704 69 219 5.0 10.0 0.00 0.02 0.02 77 1015.0
20260904192204 69 223 6.0 11.0 0.00 0.02 0.02 77 1015.0
20260904191704 69 184 6.0 11.0 0.00 0.02 0.02 77 1015.0
20260904190704 69 215 5.0 10.0 0.00 0.02 0.02 78 1015.0
20260904185704 69 232 6.0 10.0 0.00 0.02 0.02 77 1015.2
20260904185205 69 203 5.0 8.0 0.00 0.02 0.02 76 1015.1
20260904184704 69 195 5.0 8.0 0.00 0.02 0.02 77 1015.2
20260904184205 69 190 5.0 9.0 0.00 0.02 0.02 78 1015.2
20260904183704 69 166 5.0 9.0 0.00 0.02 0.02 79 1015.3
20260904183204 69 196 4.0 7.0 0.00 0.02 0.02 79 1015.3
20260904182705 69 142 4.0 7.0 0.00 0.02 0.02 80 1015.3
20260904182204 68 188 3.0 7.0 0.00 0.02 0.02 81 1015.3
20260904181205 67 131 3.0 7.0 0.00 0.02 0.02 84 1015.3
20260904180204 67 219 3.0 5.0 0.00 0.02 0.02 86 1015.3
20260904175704 66 173 2.0 5.0 0.00 0.02 0.02 87 1015.4
20260904175205 66 115 2.0 6.0 0.00 0.02 0.02 88 1015.4
20260904174704 65 148 3.0 6.0 0.00 0.02 0.02 89 1015.4
20260904174204 65 132 2.0 6.0 0.00 0.02 0.02 89 1015.4
20260904173704 65 123 2.0 6.0 0.00 0.02 0.02 90 1015.4
20260904173204 65 113 3.0 6.0 0.00 0.02 0.02 90 1015.4
20260904172704 64 113 2.0 6.0 0.00 0.02 0.02 90 1015.4
20260904172205 64 178 2.0 5.0 0.00 0.02 0.02 91 1015.2
20260904171704 64 169 2.0 5.0 0.00 0.02 0.02 91 1015.2
20260904170704 64 116 1.0 5.0 0.00 0.02 0.02 92 1015.2
20260904170205 63 168 2.0 7.0 0.00 0.02 0.02 92 1015.2
20260904165704 63 149 3.0 8.0 0.00 0.02 0.02 92 1015.2
20260904165205 63 136 3.0 8.0 0.00 0.02 0.02 92 1015.3
20260904164704 63 119 3.0 8.0 0.00 0.02 0.02 92 1015.2
20260904164205 63 109 3.0 7.0 0.00 0.02 0.02 93 1015.2
20260904163704 63 117 3.0 7.0 0.00 0.02 0.02 93 1015.1
20260904163204 63 158 2.0 7.0 0.00 0.02 0.02 93 1015.1
20260904162204 62 113 3.0 7.0 0.00 0.02 0.02 93 1015.0
20260904161705 62 131 3.0 6.0 0.00 0.02 0.02 93 1014.9
20260904161204 62 150 2.0 7.0 0.00 0.02 0.02 94 1014.8
20260904160205 62 153 2.0 7.0 0.00 0.02 0.02 94 1014.7
20260904155705 62 119 2.0 5.0 0.00 0.02 0.02 94 1014.6
20260904155204 62 117 1.0 0.0 0.00 0.02 0.02 94 1014.6
20260904154704 62 126 0.0 0.0 0.00 0.02 0.02 94 1014.6
20260904154204 62 5 0.0 0.0 0.00 0.02 0.02 94 1014.6
20260904153704 62 5 0.0 0.0 0.00 0.02 0.02 94 1014.6
20260904153204 61 5 0.0 1.0 0.00 0.02 0.02 94 1014.6
20260904152704 61 5 0.0 1.0 0.00 0.02 0.02 94 1014.5
20260904152204 61 5 0.0 3.0 0.00 0.02 0.02 94 1014.5
20260904151705 61 5 0.0 3.0 0.00 0.02 0.02 94 1014.5
20260904150704 60 326 1.0 3.0 0.00 0.02 0.02 94 1014.5
20260904150205 60 355 1.0 3.0 0.00 0.02 0.02 94 1014.4
20260904145704 60 0 1.0 3.0 0.00 0.02 0.02 94 1014.4
20260904145204 59 322 0.0 2.0 0.00 0.02 0.02 94 1014.4
20260904143705 59 322 0.0 0.0 0.00 0.02 0.02 93 1014.1
20260904143205 59 322 0.0 3.0 0.00 0.02 0.02 93 1014.1
20260904142704 58 322 0.0 3.0 0.00 0.02 0.02 93 1014.0
20260904142204 58 322 0.0 3.0 0.00 0.02 0.02 93 1014.0
20260904141704 58 321 0.0 0.0 0.00 0.02 0.02 93 1013.9
20260904141204 58 308 0.0 0.0 0.00 0.02 0.02 93 1013.8
20260904140705 59 308 0.0 0.0 0.00 0.02 0.02 93 1013.8
20260904140204 58 308 0.0 0.0 0.00 0.02 0.02 93 1013.7
20260904135704 59 330 0.0 0.0 0.00 0.02 0.02 93 1013.6
20260904135204 59 336 0.0 0.0 0.00 0.02 0.02 93 1013.6
20260904134705 59 336 0.0 0.0 0.00 0.02 0.02 93 1013.5
20260904134204 58 329 0.0 0.0 0.00 0.02 0.02 93 1013.3
20260904133705 58 309 0.0 0.0 0.00 0.02 0.02 93 1013.3
20260904133204 58 309 0.0 0.0 0.00 0.02 0.02 93 1013.3
20260904132704 59 309 0.0 0.0 0.00 0.02 0.02 93 1013.3
20260904132204 59 309 0.0 0.0 0.00 0.02 0.02 93 1013.4
20260904131704 59 309 0.0 0.0 0.00 0.02 0.02 93 1013.4
20260904131204 59 309 0.0 0.0 0.00 0.02 0.02 93 1013.4
20260904130204 59 309 0.0 0.0 0.00 0.02 0.02 93 1013.2
20260904125704 59 309 0.0 0.0 0.00 0.02 0.02 93 1013.3
20260904125204 59 309 0.0 0.0 0.00 0.02 0.02 93 1013.2
20260904124704 59 313 0.0 0.0 0.00 0.02 0.02 93 1013.2
20260904124205 59 313 0.0 0.0 0.00 0.02 0.02 93 1013.2
20260904123704 59 321 0.0 0.0 0.00 0.02 0.02 93 1013.2
20260904123204 59 300 0.0 0.0 0.00 0.02 0.02 93 1013.1
20260904122204 60 313 0.0 3.0 0.00 0.02 0.02 93 1013.1
20260904121705 60 313 0.0 3.0 0.00 0.02 0.02 93 1013.2
20260904121205 60 317 0.0 3.0 0.00 0.02 0.02 94 1013.0
20260904120204 60 308 0.0 0.0 0.00 0.02 0.02 94 1013.1
20260904115705 60 298 0.0 1.0 0.00 0.02 0.02 94 1013.0
20260904115204 60 298 0.0 3.0 0.00 0.02 0.02 94 1013.1
20260904113704 60 319 1.0 3.0 0.00 0.02 0.02 94 1012.9
20260904113204 60 284 1.0 5.0 0.00 0.02 0.02 94 1012.9
20260904112705 60 288 1.0 5.0 0.00 0.02 0.02 94 1012.9
20260904112204 60 329 2.0 6.0 0.00 0.02 0.02 94 1012.8
20260904111704 60 330 2.0 7.0 0.00 0.02 0.02 94 1012.8
20260904110704 61 327 3.0 7.0 0.00 0.02 0.02 94 1012.8
20260904110204 61 301 3.0 7.0 0.00 0.02 0.02 94 1012.7
20260904104204 62 295 1.0 2.0 0.00 0.02 0.02 95 1012.6
20260904103704 62 288 0.0 0.0 0.00 0.02 0.02 95 1012.6
20260904103205 62 296 0.0 0.0 0.00 0.02 0.02 94 1012.6
20260904102204 63 295 0.0 0.0 0.00 0.02 0.02 95 1012.5
20260904101704 63 252 0.0 0.0 0.00 0.02 0.02 94 1012.6
20260904101204 63 252 0.0 0.0 0.00 0.02 0.02 94 1012.6
20260904100704 63 252 0.0 0.0 0.00 0.02 0.02 94 1012.6
20260904100204 64 252 0.0 0.0 0.00 0.02 0.02 95 1012.5
20260904095704 64 252 0.0 0.0 0.00 0.02 0.02 95 1012.6
20260904095204 64 76 0.0 0.0 0.00 0.02 0.02 95 1012.5
20260904094705 63 76 0.0 0.0 0.00 0.02 0.02 95 1012.5
20260904094204 63 76 0.0 0.0 0.00 0.02 0.02 94 1012.5
20260904093705 63 76 0.0 0.0 0.00 0.02 0.02 94 1012.5
20260904093204 63 76 0.0 0.0 0.00 0.02 0.02 94 1012.4
20260904092704 63 76 0.0 0.0 0.00 0.02 0.02 94 1012.5
20260904092205 63 76 0.0 0.0 0.00 0.02 0.02 94 1012.5
20260904091704 63 76 0.0 0.0 0.00 0.02 0.02 94 1012.4
20260904091204 63 76 0.0 0.0 0.00 0.02 0.02 94 1012.4
20260904090204 63 84 0.0 0.0 0.00 0.02 0.02 94 1012.5
20260904085205 63 59 0.0 0.0 0.01 0.02 0.02 94 1012.5
20260904084704 63 47 0.0 0.0 0.01 0.02 0.02 94 1012.5
20260904084204 63 90 0.0 0.0 0.01 0.02 0.02 94 1012.6
20260904083204 63 163 0.0 0.0 0.02 0.02 0.02 94 1012.6
20260904082204 63 163 0.0 0.0 0.02 0.02 0.02 94 1012.6
20260904081705 63 163 0.0 0.0 0.02 0.02 0.02 94 1012.7
20260904081204 63 163 0.0 2.0 0.02 0.02 0.02 94 1012.8
20260904080705 63 163 0.0 2.0 0.02 0.02 0.02 94 1012.8
20260904080204 63 163 0.0 2.0 0.02 0.02 0.02 94 1012.8
20260904075704 63 163 0.0 2.0 0.01 0.01 0.01 94 1012.8
20260904074704 63 163 0.0 1.0 0.01 0.01 0.01 94 1012.8
20260904074205 63 163 0.0 3.0 0.01 0.01 0.01 94 1012.7
20260904073705 63 163 0.0 3.0 0.00 0.00 0.00 94 1012.6
20260904073204 63 163 0.0 3.0 0.00 0.00 0.00 94 1012.7
20260904072204 63 149 0.0 2.0 0.00 0.00 0.00 94 1012.7
20260904071705 63 149 0.0 3.0 0.00 0.00 0.00 94 1012.7
20260904071204 63 149 1.0 3.0 0.00 0.00 0.00 93 1012.6
20260904070704 63 149 1.0 2.0 0.00 0.00 0.00 93 1012.6
20260904070205 63 149 0.0 2.0 0.00 0.00 0.00 93 1012.6
20260904065704 63 149 0.0 2.0 0.00 0.00 0.00 93 1012.6
20260904065204 63 120 0.0 0.0 0.00 0.00 0.00 93 1012.7
20260904064704 63 120 0.0 0.0 0.00 0.00 0.00 93 1012.6
20260904064204 63 120 0.0 0.0 0.00 0.00 0.00 93 1012.7
20260904063704 63 120 0.0 0.0 0.00 0.00 0.00 93 1012.7